| time (UTC) | temp F | wind direction | speed MPH | gust MPH | rain 1hr in | rain 24hr in | rain mn in | humidity % | barometer mb |
| 20260503232105 | 77 | 128 | 4.0 | 11.0 | 0.00 | 0.00 | 0.00 | 44 | 1022.7 |
| 20260503231603 | 77 | 136 | 3.0 | 8.0 | 0.00 | 0.00 | 0.00 | 45 | 1022.7 |
| 20260503231059 | 77 | 209 | 2.0 | 10.0 | 0.00 | 0.00 | 0.00 | 44 | 1022.9 |
| 20260503230555 | 78 | 152 | 4.0 | 8.0 | 0.00 | 0.00 | 0.00 | 44 | 1023.1 |
| 20260503230053 | 78 | 183 | 4.0 | 9.0 | 0.00 | 0.00 | 0.00 | 45 | 1022.7 |
| 20260503225550 | 78 | 185 | 3.0 | 14.0 | 0.00 | 0.00 | 0.00 | 45 | 1022.9 |
| 20260503225045 | 78 | 146 | 6.0 | 10.0 | 0.00 | 0.00 | 0.00 | 42 | 1022.8 |
| 20260503224543 | 78 | 142 | 3.0 | 7.0 | 0.00 | 0.00 | 0.00 | 43 | 1022.8 |
| 20260503224040 | 77 | 216 | 2.0 | 4.0 | 0.00 | 0.00 | 0.00 | 44 | 1022.8 |
| 20260503223538 | 78 | 114 | 4.0 | 6.0 | 0.00 | 0.00 | 0.00 | 42 | 1023.0 |
| 20260503223033 | 79 | 176 | 4.0 | 13.0 | 0.00 | 0.00 | 0.00 | 42 | 1023.3 |
| 20260503222532 | 81 | 190 | 1.0 | 5.0 | 0.00 | 0.00 | 0.00 | 40 | 1023.2 |
| 20260503222030 | 80 | 182 | 2.0 | 5.0 | 0.00 | 0.00 | 0.00 | 43 | 1022.9 |
| 20260503221528 | 79 | 184 | 2.0 | 11.0 | 0.00 | 0.00 | 0.00 | 42 | 1023.2 |
| 20260503221025 | 80 | 76 | 0.0 | 5.0 | 0.00 | 0.00 | 0.00 | 39 | 1022.9 |
| 20260503220521 | 81 | 158 | 2.0 | 5.0 | 0.00 | 0.00 | 0.00 | 41 | 1023.0 |
| 20260503220018 | 81 | 162 | 2.0 | 4.0 | 0.00 | 0.00 | 0.00 | 41 | 1023.0 |
| 20260503215515 | 79 | 242 | 2.0 | 5.0 | 0.00 | 0.00 | 0.00 | 40 | 1023.2 |
| 20260503215012 | 81 | 148 | 2.0 | 5.0 | 0.00 | 0.00 | 0.00 | 39 | 1023.5 |
| 20260503214510 | 82 | 119 | 1.0 | 4.0 | 0.00 | 0.00 | 0.00 | 39 | 1023.5 |
| 20260503214006 | 80 | 123 | 2.0 | 7.0 | 0.00 | 0.00 | 0.00 | 40 | 1023.6 |
| 20260503213505 | 80 | 200 | 2.0 | 7.0 | 0.00 | 0.00 | 0.00 | 38 | 1023.7 |
| 20260503213001 | 81 | 85 | 8.0 | 10.0 | 0.00 | 0.00 | 0.00 | 39 | 1023.7 |
| 20260503212459 | 80 | 161 | 6.0 | 6.0 | 0.00 | 0.00 | 0.00 | 39 | 1023.7 |
| 20260503211956 | 80 | 211 | 3.0 | 5.0 | 0.00 | 0.00 | 0.00 | 37 | 1023.9 |
| 20260503211453 | 80 | 113 | 3.0 | 7.0 | 0.00 | 0.00 | 0.00 | 39 | 1023.9 |
| 20260503210948 | 81 | 176 | 2.0 | 5.0 | 0.00 | 0.00 | 0.00 | 40 | 1023.9 |
| 20260503210445 | 81 | 251 | 1.0 | 5.0 | 0.00 | 0.00 | 0.00 | 37 | 1023.8 |
| 20260503205940 | 81 | 138 | 2.0 | 8.0 | 0.00 | 0.00 | 0.00 | 40 | 1024.1 |
| 20260503205437 | 81 | 166 | 2.0 | 8.0 | 0.00 | 0.00 | 0.00 | 39 | 1024.1 |
| 20260503204933 | 80 | 151 | 4.0 | 8.0 | 0.00 | 0.00 | 0.00 | 39 | 1024.2 |
| 20260503204431 | 81 | 190 | 2.0 | 5.0 | 0.00 | 0.00 | 0.00 | 39 | 1024.2 |
| 20260503203927 | 80 | 156 | 3.0 | 5.0 | 0.00 | 0.00 | 0.00 | 40 | 1024.1 |
| 20260503203425 | 81 | 155 | 5.0 | 8.0 | 0.00 | 0.00 | 0.00 | 38 | 1024.4 |
| 20260503202921 | 80 | 243 | 2.0 | 9.0 | 0.00 | 0.00 | 0.00 | 39 | 1024.5 |
| 20260503202420 | 79 | 357 | 0.0 | 10.0 | 0.00 | 0.00 | 0.00 | 40 | 1024.5 |
| 20260503201918 | 82 | 205 | 3.0 | 5.0 | 0.00 | 0.00 | 0.00 | 41 | 1024.7 |
| 20260503201415 | 81 | 15 | 0.0 | 3.0 | 0.00 | 0.00 | 0.00 | 42 | 1024.9 |
| 20260503200912 | 80 | 200 | 5.0 | 10.0 | 0.00 | 0.00 | 0.00 | 39 | 1025.0 |
| 20260503200408 | 81 | 105 | 1.0 | 12.0 | 0.00 | 0.00 | 0.00 | 39 | 1025.0 |
| 20260503195905 | 81 | 200 | 1.0 | 10.0 | 0.00 | 0.00 | 0.00 | 38 | 1024.8 |
| 20260503195402 | 81 | 175 | 2.0 | 5.0 | 0.00 | 0.00 | 0.00 | 39 | 1025.0 |
| 20260503194859 | 80 | 89 | 0.0 | 5.0 | 0.00 | 0.00 | 0.00 | 43 | 1025.1 |
| 20260503194355 | 80 | 169 | 0.0 | 9.0 | 0.00 | 0.00 | 0.00 | 38 | 1025.2 |
| 20260503193851 | 80 | 174 | 2.0 | 8.0 | 0.00 | 0.00 | 0.00 | 40 | 1025.3 |
| 20260503193347 | 81 | 211 | 0.0 | 6.0 | 0.00 | 0.00 | 0.00 | 39 | 1025.2 |
| 20260503192843 | 82 | 315 | 0.0 | 4.0 | 0.00 | 0.00 | 0.00 | 42 | 1025.4 |
| 20260503192339 | 81 | 145 | 2.0 | 8.0 | 0.00 | 0.00 | 0.00 | 38 | 1025.5 |
| 20260503191835 | 81 | 170 | 3.0 | 6.0 | 0.00 | 0.00 | 0.00 | 37 | 1025.5 |
| 20260503191333 | 82 | 219 | 0.0 | 6.0 | 0.00 | 0.00 | 0.00 | 37 | 1025.7 |
| 20260503190829 | 80 | 170 | 4.0 | 7.0 | 0.00 | 0.00 | 0.00 | 36 | 1025.8 |
| 20260503190326 | 81 | 139 | 6.0 | 10.0 | 0.00 | 0.00 | 0.00 | 35 | 1025.9 |
| 20260503185823 | 83 | 123 | 0.0 | 6.0 | 0.00 | 0.00 | 0.00 | 38 | 1026.0 |
| 20260503185319 | 80 | 155 | 2.0 | 8.0 | 0.00 | 0.00 | 0.00 | 37 | 1025.8 |
| 20260503184814 | 81 | 167 | 2.0 | 5.0 | 0.00 | 0.00 | 0.00 | 36 | 1026.1 |
| 20260503184310 | 81 | 209 | 2.0 | 4.0 | 0.00 | 0.00 | 0.00 | 37 | 1026.2 |
| 20260503183806 | 80 | 160 | 2.0 | 5.0 | 0.00 | 0.00 | 0.00 | 37 | 1026.2 |
| 20260503183304 | 79 | 139 | 3.0 | 10.0 | 0.00 | 0.00 | 0.00 | 36 | 1026.2 |
| 20260503182801 | 79 | 161 | 2.0 | 5.0 | 0.00 | 0.00 | 0.00 | 38 | 1026.0 |
| 20260503182300 | 81 | 252 | 1.0 | 3.0 | 0.00 | 0.00 | 0.00 | 35 | 1026.4 |
| 20260503181756 | 80 | 180 | 1.0 | 4.0 | 0.00 | 0.00 | 0.00 | 37 | 1026.5 |
| 20260503181253 | 80 | 234 | 3.0 | 9.0 | 0.00 | 0.00 | 0.00 | 36 | 1026.5 |
| 20260503180750 | 79 | 136 | 4.0 | 6.0 | 0.00 | 0.00 | 0.00 | 35 | 1026.5 |
| 20260503180248 | 81 | 215 | 2.0 | 8.0 | 0.00 | 0.00 | 0.00 | 34 | 1026.5 |
| 20260503175744 | 80 | 144 | 2.0 | 7.0 | 0.00 | 0.00 | 0.00 | 37 | 1026.6 |
| 20260503175242 | 79 | 139 | 3.0 | 10.0 | 0.00 | 0.00 | 0.00 | 37 | 1026.6 |
| 20260503174738 | 79 | 135 | 2.0 | 10.0 | 0.00 | 0.00 | 0.00 | 38 | 1026.9 |
| 20260503174236 | 79 | 154 | 0.0 | 4.0 | 0.00 | 0.00 | 0.00 | 41 | 1027.1 |
| 20260503173736 | 78 | 237 | 4.0 | 5.0 | 0.00 | 0.00 | 0.00 | 35 | 1027.0 |
| 20260503173232 | 81 | 112 | 6.0 | 8.0 | 0.00 | 0.00 | 0.00 | 36 | 1027.0 |
| 20260503172730 | 79 | 151 | 3.0 | 8.0 | 0.00 | 0.00 | 0.00 | 37 | 1027.1 |
| 20260503172227 | 80 | 135 | 4.0 | 10.0 | 0.00 | 0.00 | 0.00 | 35 | 1027.1 |
| 20260503171723 | 78 | 154 | 1.0 | 11.0 | 0.00 | 0.00 | 0.00 | 39 | 1027.1 |
| 20260503171220 | 78 | 193 | 1.0 | 10.0 | 0.00 | 0.00 | 0.00 | 36 | 1027.2 |
| 20260503170717 | 79 | 124 | 3.0 | 6.0 | 0.00 | 0.00 | 0.00 | 39 | 1027.3 |
| 20260503170214 | 78 | 179 | 2.0 | 6.0 | 0.00 | 0.00 | 0.00 | 39 | 1027.3 |
| 20260503160136 | 78 | 167 | 5.0 | 12.0 | 0.00 | 0.00 | 0.00 | 38 | 1027.2 |
| 20260503150606 | 77 | 88 | 0.0 | 4.0 | 0.00 | 0.00 | 0.00 | 43 | 1027.1 |
| 20260503130955 | 66 | 89 | 0.0 | 0.0 | 0.00 | 0.00 | 0.00 | 85 | 1026.3 |
| 20260503130453 | 65 | 57 | 0.0 | 1.0 | 0.00 | 0.00 | 0.00 | 88 | 1026.2 |
| 20260503110349 | 54 | 89 | 0.0 | 2.0 | 0.00 | 0.00 | 0.00 | 99 | 1025.5 |
| 20260503090241 | 55 | 97 | 0.0 | 1.0 | 0.00 | 0.00 | 0.00 | 99 | 1024.9 |
| 20260503081209 | 56 | 113 | 0.0 | 0.0 | 0.00 | 0.00 | 0.00 | 98 | 1025.1 |
| 20260503080704 | 56 | 86 | 1.0 | 2.0 | 0.00 | 0.00 | 0.00 | 97 | 1024.8 |
| 20260503080201 | 56 | 113 | 0.0 | 1.0 | 0.00 | 0.00 | 0.00 | 97 | 1025.0 |
| 20260503072638 | 56 | 119 | 0.0 | 1.0 | 0.00 | 0.00 | 0.00 | 95 | 1024.9 |
| 20260503072135 | 57 | 102 | 0.0 | 1.0 | 0.00 | 0.00 | 0.00 | 95 | 1024.9 |
| 20260503071631 | 57 | 121 | 0.0 | 2.0 | 0.00 | 0.00 | 0.00 | 94 | 1025.0 |
| 20260503071128 | 57 | 89 | 0.0 | 1.0 | 0.00 | 0.00 | 0.00 | 94 | 1025.0 |
| 20260503070625 | 57 | 147 | 0.0 | 1.0 | 0.00 | 0.00 | 0.00 | 94 | 1025.0 |
| 20260503070123 | 57 | 103 | 0.0 | 1.0 | 0.00 | 0.00 | 0.00 | 94 | 1024.7 |
| 20260503055044 | 59 | 142 | 0.0 | 1.0 | 0.00 | 0.00 | 0.00 | 91 | 1025.1 |
| 20260503054539 | 59 | 116 | 0.0 | 0.0 | 0.00 | 0.00 | 0.00 | 91 | 1024.9 |
| 20260503054037 | 59 | 129 | 1.0 | 2.0 | 0.00 | 0.00 | 0.00 | 90 | 1024.8 |
| 20260503053535 | 59 | 89 | 0.0 | 1.0 | 0.00 | 0.00 | 0.00 | 90 | 1025.0 |
| 20260503053032 | 59 | 124 | 0.0 | 1.0 | 0.00 | 0.00 | 0.00 | 89 | 1024.9 |
| 20260503052529 | 59 | 107 | 0.0 | 2.0 | 0.00 | 0.00 | 0.00 | 90 | 1024.9 |
| 20260503052025 | 59 | 113 | 1.0 | 1.0 | 0.00 | 0.00 | 0.00 | 89 | 1024.6 |
| 20260503051521 | 59 | 112 | 1.0 | 2.0 | 0.00 | 0.00 | 0.00 | 89 | 1024.7 |
| 20260503051019 | 59 | 89 | 0.0 | 1.0 | 0.00 | 0.00 | 0.00 | 89 | 1024.5 |
| 20260503050514 | 60 | 96 | 1.0 | 1.0 | 0.00 | 0.00 | 0.00 | 89 | 1024.6 |
| 20260503050012 | 59 | 135 | 0.0 | 0.0 | 0.00 | 0.00 | 0.00 | 89 | 1024.6 |
| 20260503045509 | 59 | 124 | 0.0 | 1.0 | 0.00 | 0.00 | 0.00 | 89 | 1024.6 |
| 20260503045006 | 59 | 113 | 0.0 | 2.0 | 0.00 | 0.00 | 0.00 | 89 | 1024.4 |
| 20260503044503 | 59 | 112 | 1.0 | 2.0 | 0.00 | 0.00 | 0.00 | 88 | 1024.4 |
| 20260503044000 | 60 | 97 | 0.0 | 2.0 | 0.00 | 0.00 | 0.00 | 88 | 1024.5 |
| 20260503043456 | 60 | 110 | 0.0 | 1.0 | 0.00 | 0.00 | 0.00 | 87 | 1024.6 |
| 20260503042953 | 60 | 111 | 0.0 | 1.0 | 0.00 | 0.00 | 0.00 | 87 | 1024.5 |
| 20260503042450 | 60 | 109 | 0.0 | 2.0 | 0.00 | 0.00 | 0.00 | 86 | 1024.4 |
| 20260503041946 | 60 | 50 | 0.0 | 2.0 | 0.00 | 0.00 | 0.00 | 85 | 1024.9 |
| 20260503041443 | 61 | 38 | 0.0 | 1.0 | 0.00 | 0.00 | 0.00 | 85 | 1024.6 |
| 20260503040941 | 61 | 110 | 0.0 | 2.0 | 0.00 | 0.00 | 0.00 | 84 | 1024.5 |
| 20260503040438 | 61 | 67 | 0.0 | 2.0 | 0.00 | 0.00 | 0.00 | 84 | 1024.6 |
| 20260503035935 | 61 | 129 | 0.0 | 1.0 | 0.00 | 0.00 | 0.00 | 84 | 1024.6 |
| 20260503035432 | 61 | 89 | 0.0 | 2.0 | 0.00 | 0.00 | 0.00 | 84 | 1024.3 |
| 20260503034930 | 61 | 130 | 0.0 | 1.0 | 0.00 | 0.00 | 0.00 | 84 | 1024.4 |
| 20260503034427 | 61 | 95 | 0.0 | 2.0 | 0.00 | 0.00 | 0.00 | 84 | 1024.4 |
| 20260503033924 | 62 | 135 | 0.0 | 2.0 | 0.00 | 0.00 | 0.00 | 85 | 1024.2 |
| 20260503033421 | 62 | 121 | 1.0 | 2.0 | 0.00 | 0.00 | 0.00 | 86 | 1024.3 |
| 20260503032919 | 62 | 124 | 0.0 | 2.0 | 0.00 | 0.00 | 0.00 | 83 | 1024.1 |
| 20260503032418 | 62 | 89 | 0.0 | 1.0 | 0.00 | 0.00 | 0.00 | 82 | 1023.9 |
| 20260503031915 | 62 | 103 | 0.0 | 2.0 | 0.00 | 0.00 | 0.00 | 81 | 1024.1 |
| 20260503031412 | 62 | 89 | 0.0 | 2.0 | 0.00 | 0.00 | 0.00 | 83 | 1024.1 |
| 20260503030909 | 62 | 115 | 0.0 | 2.0 | 0.00 | 0.00 | 0.00 | 83 | 1024.2 |
| 20260503030405 | 63 | 124 | 0.0 | 2.0 | 0.00 | 0.00 | 0.00 | 82 | 1024.2 |
| 20260503025902 | 63 | 142 | 0.0 | 1.0 | 0.00 | 0.00 | 0.00 | 82 | 1024.0 |
| 20260503025359 | 63 | 89 | 0.0 | 2.0 | 0.00 | 0.00 | 0.00 | 79 | 1023.9 |
| 20260503024856 | 63 | 89 | 0.0 | 2.0 | 0.00 | 0.00 | 0.00 | 81 | 1024.2 |
| 20260503024353 | 63 | 119 | 0.0 | 2.0 | 0.00 | 0.00 | 0.00 | 82 | 1024.1 |
| 20260503023850 | 64 | 139 | 0.0 | 2.0 | 0.00 | 0.00 | 0.00 | 82 | 1023.9 |
| 20260503023347 | 64 | 129 | 0.0 | 1.0 | 0.00 | 0.00 | 0.00 | 79 | 1024.0 |
| 20260503022843 | 64 | 117 | 0.0 | 1.0 | 0.00 | 0.00 | 0.00 | 76 | 1023.8 |
| 20260503022338 | 64 | 134 | 0.0 | 2.0 | 0.00 | 0.00 | 0.00 | 72 | 1023.6 |
| 20260503021835 | 65 | 69 | 0.0 | 1.0 | 0.00 | 0.00 | 0.00 | 71 | 1023.6 |
| 20260503021331 | 65 | 37 | 0.0 | 0.0 | 0.00 | 0.00 | 0.00 | 70 | 1023.7 |
| 20260503020828 | 66 | 142 | 0.0 | 0.0 | 0.00 | 0.00 | 0.00 | 68 | 1023.7 |
| 20260503020326 | 66 | 142 | 0.0 | 0.0 | 0.00 | 0.00 | 0.00 | 66 | 1023.9 |
| 20260503015822 | 66 | 142 | 0.0 | 0.0 | 0.00 | 0.00 | 0.00 | 65 | 1023.6 |
| 20260503015320 | 67 | 139 | 0.0 | 1.0 | 0.00 | 0.00 | 0.00 | 64 | 1023.5 |
| 20260503014815 | 67 | 141 | 0.0 | 1.0 | 0.00 | 0.00 | 0.00 | 62 | 1023.4 |
| 20260503014313 | 67 | 55 | 0.0 | 0.0 | 0.00 | 0.00 | 0.00 | 61 | 1023.4 |
| 20260503013810 | 68 | 130 | 0.0 | 0.0 | 0.00 | 0.00 | 0.00 | 61 | 1023.2 |
| 20260503013308 | 68 | 130 | 0.0 | 0.0 | 0.00 | 0.00 | 0.00 | 59 | 1023.2 |
| 20260503012804 | 69 | 50 | 0.0 | 1.0 | 0.00 | 0.00 | 0.00 | 57 | 1023.2 |
| 20260503012305 | 69 | 195 | 0.0 | 0.0 | 0.00 | 0.00 | 0.00 | 56 | 1023.3 |
| 20260503011759 | 69 | 269 | 0.0 | 1.0 | 0.00 | 0.00 | 0.00 | 55 | 1023.2 |
| 20260503011255 | 69 | 151 | 0.0 | 1.0 | 0.00 | 0.00 | 0.00 | 55 | 1023.0 |
| 20260503010752 | 70 | 147 | 0.0 | 1.0 | 0.00 | 0.00 | 0.00 | 54 | 1023.1 |
| 20260503010249 | 70 | 138 | 0.0 | 4.0 | 0.00 | 0.00 | 0.00 | 55 | 1022.9 |
| 20260503005746 | 70 | 145 | 0.0 | 2.0 | 0.00 | 0.00 | 0.00 | 54 | 1022.9 |
| 20260503005243 | 71 | 89 | 0.0 | 2.0 | 0.00 | 0.00 | 0.00 | 53 | 1023.0 |
| 20260503004739 | 71 | 36 | 0.0 | 2.0 | 0.00 | 0.00 | 0.00 | 51 | 1022.6 |
| 20260503004238 | 72 | 104 | 1.0 | 3.0 | 0.00 | 0.00 | 0.00 | 50 | 1022.7 |
| 20260503003734 | 72 | 89 | 0.0 | 3.0 | 0.00 | 0.00 | 0.00 | 49 | 1022.6 |
| 20260503003232 | 73 | 212 | 0.0 | 2.0 | 0.00 | 0.00 | 0.00 | 49 | 1022.6 |
| 20260503002728 | 74 | 129 | 0.0 | 3.0 | 0.00 | 0.00 | 0.00 | 47 | 1022.6 |
| 20260503002225 | 76 | 193 | 1.0 | 4.0 | 0.00 | 0.00 | 0.00 | 46 | 1022.5 |
| 20260503001721 | 76 | 89 | 0.0 | 4.0 | 0.00 | 0.00 | 0.00 | 46 | 1022.5 |
| 20260503001218 | 77 | 37 | 0.0 | 4.0 | 0.00 | 0.00 | 0.00 | 46 | 1022.4 |
| 20260503000716 | 77 | 235 | 0.0 | 3.0 | 0.00 | 0.00 | 0.00 | 44 | 1022.2 |
| 20260503000213 | 77 | 11 | 0.0 | 2.0 | 0.00 | 0.00 | 0.00 | 43 | 1022.0 |
| 20260502235710 | 77 | 19 | 2.0 | 7.0 | 0.00 | 0.00 | 0.00 | 43 | 1022.5 |
| 20260502235208 | 77 | 53 | 0.0 | 5.0 | 0.00 | 0.00 | 0.00 | 44 | 1022.2 |
| 20260502234704 | 77 | 75 | 0.0 | 4.0 | 0.00 | 0.00 | 0.00 | 44 | 1022.2 |
| 20260502234201 | 78 | 304 | 2.0 | 5.0 | 0.00 | 0.00 | 0.00 | 43 | 1022.4 |
| 20260502233656 | 78 | 212 | 2.0 | 3.0 | 0.00 | 0.00 | 0.00 | 43 | 1022.3 |
| 20260502233154 | 77 | 343 | 0.0 | 4.0 | 0.00 | 0.00 | 0.00 | 44 | 1022.2 |
| 20260502232649 | 78 | 207 | 0.0 | 11.0 | 0.00 | 0.00 | 0.00 | 43 | 1022.1 |
| 20260502232147 | 78 | 247 | 0.0 | 6.0 | 0.00 | 0.00 | 0.00 | 43 | 1022.3 |